Location: Błonie
(52.1971°N, 20.6200°E)
Time: 05:05:17
(UTC+01:00)

ISS - Pass Details

Date: 29 January 2019
Orbit: 403 x 411 km, 51.6° (Epoch: 21 February)

Event Time Altitude Azimuth Distance (km) Brightness Sun altitude
Rises 18:15:34 0° 258° (WSW) 2,334 1.8 -17.8°
Reaches altitude 10° 18:17:39 10° 257° (WSW) 1,475 0.3 -18.1°
Maximum altitude 18:20:57 76° 173° (S) 428 -3.8 -18.6°
Enters shadow 18:21:16 68° 118° (ESE) 448 -3.9 -18.7°
